Back to catalog

BREEZE-M DEB

AliveMEO
NORAD 41548·DEBRIS·🇷🇺 Russia

Launched Dec 13, 2015 from Baikonur Cosmodrome

Loading…

Next Passes (next 24 hours)

TLE

FreshSource: Space-Track

Epoch: Sep 13, 2026, 17:10 UTC

1 41548U 15075J   26256.71593624 -.00000004  00000-0  00000-0 0  9993
2 41548   8.8856  54.9023 0375869 138.9327 224.0947  1.02191171 40176

Track BREEZE-M DEB in real time with AllMySat

Download on the App Store